OBJECT L, 66676

Orbit data source: Space-Track

You're viewing an Uncataloged Satellite

Recently launched and/or uncataloged satellites may have evolving metadata. Metadata may include but not limited to: Owner, Maufacturer, Bus, Motor, and Mission.

OBJECT L, 66676 is a satellite in SSO that was launched on Fri, 28 Nov 2025 UTC via an FALCON 9 launch vehicle from the Air Force Western Test Range (AFWTR). Unknown objects in Earth's orbit typically refer to objects detected orbiting the Earth but have not yet been identified or cataloged. These objects could be anything from previously untracked satellites, spent rocket stages, debris from satellite collisions, or even natural meteoroids temporarily captured by Earth's gravity.

Loading next visibility...
Identifier
66676, 2025-276L
Orbit
SSO
Country
Flag of TBDTBD
Related business
None
Manufacturer
Unknown
Mission
Operational Civil Technology
Bus & Motor
Unknown
Mass
Unknown
Launch date (UTC)
2025-11-28 (2 months ago)
Launch vehicle
FALCON 9
Launch site
Air Force Western Test Range (AFWTR)
Object type
Unknown
Shape & HBR
Box + 2 Ant, 0.1 m
Radar Cross Section
0.006 m²

Expand to show TLE details & history
Last TLE update: 1 day ago

TLE from 1 day ago
0 OBJECT L
1 66676U 25276L   26034.18190381  .00006020  00000-0  30364-3 0  9996
2 66676  97.4319 109.9480 0007560 109.3319 250.8733 15.17478459 10078
Epoch: 2026-02-03T04:21Z
TLE epoch observation values (Epoch: 2026-02-03T04:21:56.489Z)
Latitude
0.00002°
Longitude
-88.90389°
Altitude
518.262 km
Speed
7.603 km/s
True Right ascension
07h 19m 47s
True Declination
0° 00' 00"
Sunlit
Object was in full shadow at epoch
Visualization orbit readout
Latitude
Unknown
Longitude
Unknown
Altitude
Unknown
Speed
Unknown
Apparent Right ascension
Unknown
Apparent Declination
Unknown
Sunlit
N/A
Visualization observer readout
Local Sidereal Time
08:42:05
Azimuth
Unknown
Elevation
Unknown
Doppler factor
Unknown
Orbital elements
Apogee altitude
515.642 km
Perigee altitude
505.227 km
Semi-major axis
6,888.572 km
Eccentricity
0.00076
Inclination
97.4319°
RAAN
109.948°
Arg. of periapsis
109.3319°
True anomaly
250.79148°
Mean anomaly
250.8733°
Eccentric anomaly
250.83239°
Mean motion
3.7962 °/min
Orbital period
94.83 mins
BSTAR
0.00030364
Loading maneuver chart data...
Computing Atmospheric mass density...
Loading historical data...
Loading historical data...
Loading historical data...
Loading historical data...
Loading historical data...
Loading historical data...
Loading historical data...

Documentation

Showing up to 5 results
|